Miscellaneous Local Product
Issued by NWS Hastings, NE

Home | Current Version | Previous Version | Text Only | Print | Product List | Glossary Off
Versions: 1 2 3 4 5 6 7 8 9 10 11 12 13 14 15 16 17 18 19 20 21 22 23 24 25 26 27 28 29 30 31 32 33 34 35 36 37 38 39 40 41 42 43 44 45 46 47 48 49 50

000
AXUS43 KGID 021002
MISGRI

GID CWA HOURLY WEATHER ROUNDUP
NATIONAL WEATHER SERVICE HASTINGS NE
500 AM CDT TUE JUN 02 2015

NOTE: "FAIR" INDICATES FEW OR NO CLOUDS BELOW 12,000 FEET WITH NO
SIGNIFICANT WEATHER AND/OR OBSTRUCTIONS TO VISIBILITY.

...SOUTH CENTRAL NEBRASKA...

CITY           SKY/WX    TMP DP  RH WIND       PRES   REMARKS
GRAND ISLAND   CLOUDY    62  56  80 S12       29.99F
HASTINGS       CLOUDY    62  57  83 SW8       30.02F
KEARNEY        CLOUDY    63  57  82 S18       29.94F
ORD            CLOUDY    63  57  81 SE7       29.92R
YORK           CLOUDY    59  55  88 S13       30.01F
AURORA         RAIN      60  58  95 S9        30.01R
LEXINGTON      RAIN      63  62  96 S18       29.92F
HOLDREGE       LGT RAIN  62  59  91 S12       30.00F
HEBRON         MOCLDY    59  55  85 SE10      30.01F

...NEBRASKA PANHANDLE...

CITY           SKY/WX    TMP DP  RH WIND       PRES   REMARKS
CHADRON        PTCLDY    62  51  67 SW12      29.86R
ALLIANCE       PTCLDY    57  53  86 S7        29.90R
SCOTTSBLUFF    CLOUDY    62  53  72 E10G22    29.87F
SIDNEY         PTCLDY    58  55  90 S9        29.95S

...WESTERN AND NORTH CENTRAL NEBRASKA...

CITY           SKY/WX    TMP DP  RH WIND       PRES   REMARKS
VALENTINE      NOT AVBL
AINSWORTH      CLOUDY    63  60  89 S9        29.86F
ONEILL         CLOUDY    64  57  80 S14       29.91F
BROKEN BOW     LGT RAIN  65  60  84 S16G24    29.90R
IMPERIAL       CLOUDY    60  56  86 E8        29.96F
NORTH PLATTE   CLOUDY    65  55  70 S16G23    29.88F
MCCOOK         CLOUDY    63  57  81 E10       29.92F

...EASTERN NEBRASKA...

CITY           SKY/WX    TMP DP  RH WIND       PRES   REMARKS
NORFOLK        MOCLDY    60  55  83 SE9G21    30.00R
SO SIOUX CITY  CLOUDY    58  52  80 SE8       30.04R
TEKAMAH        CLOUDY    59  53  80 S10       30.06R
COLUMBUS       CLOUDY    61  52  72 S12       30.04R
ALBION         CLOUDY    62  55  77 SE15      29.98F
OMAHA EPPLEY   CLOUDY    57  53  86 SE9       30.07R
OFFUTT AFB     MOCLDY    56  53  90 SE6       30.06R
MILLARD        MOCLDY    57  54  88 SE7       30.06S
LINCOLN        CLOUDY    58  53  84 S14       30.05S
NEBRASKA CITY  MOCLDY    55  53  95 S8        30.07S
BEATRICE       MOCLDY    57  53  87 SE7       30.05S
FALLS CITY     MOCLDY    55  52  89 SE5       30.06F

...NORTHERN KANSAS...

CITY           SKY/WX    TMP DP  RH WIND       PRES   REMARKS
GOODLAND       CLOUDY    60  54  80 E9        29.99F
HILL CITY      CLOUDY    65  61  87 SE6       29.97F
NORTON         SUNNY     63  57  82 E8        29.95S
PHILLIPSBURG   MOCLDY    66  64  94 E8        29.99F
SMITH CENTER   RAIN      59  57  94 W3        30.05R
HAYS           CLOUDY    63  54  72 SE12      29.96F
RUSSELL        CLOUDY    62  58  86 SE17      29.95F
CONCORDIA      CLOUDY    60  56  86 SE14      30.01F
SALINA         MOCLDY    62  56  80 SE10      30.01F
TOPEKA         MOCLDY    58  54  86 S3        30.09R



USA.gov is the U.S. government's official web portal to all federal, state and local government web resources and services.